Flag for Germany Weather past 2 weeks in Berlin, Berlin, Germany

Now
46 °F

Cool.


Feels Like: 41 °F
Forecast: 35 / 43 °F
Wind: 9 mph from West

Location: Berlin-Tempelhof

Current Time: Apr 1, 2015 at 1:15:56 PM

Latest Report: Apr 1, 2015 at 1:00 PM


Visibility: N/A

Pressure: 29.69 "Hg

Humidity: 64%

Dew point: 34 °F

Location of BerlinLocation

Historic Weather in Berlin — Graph

°F

Berlin temperature yesterday

Maximum temperature yesterday: 52 °F (at 3:00 PM)
Minimum temperature yesterday: 33 °F (at 9:00 AM)
Average temperature yesterday: 43 °F

Past Weeks' High & Low Weather Summary

 TemperatureHumidityPressure
High62 °F (Mar 17, 4:00 PM)98% (Mar 31, 9:00 AM)30.44 "Hg (Mar 31, 9:00 AM)
Low29 °F (Mar 22, 6:00 AM)19% (Mar 18, 4:00 PM)29.06 "Hg (Mar 30, 12:00 AM)
Average45 °F66%29.91 "Hg
* Reported Mar 17 11:00 AM — Apr 1 12:00 Noon, Berlin, Weather by CustomWeather, © 2015

Note: Actual official high and low records may vary slightly from our data, if they occured in-between our weather recording intervals... More about our weather records

Advertising

Berlin weather history for previous 24 hours

 ConditionsComfort  
Time TempWeatherWind HumidityBarometerVisibility
12:00 PM
Wed, Apr 1
43 °FQuite cool.13 mph68%29.70 "HgN/A
11:00 AM41 °FQuite cool.10 mph78%29.68 "HgN/A
10:00 AM39 °FChilly.9 mph86%29.66 "HgN/A
9:00 AM38 °FChilly.9 mph88%29.64 "HgN/A
8:00 AM39 °FChilly.9 mph81%29.61 "HgN/A
7:00 AM39 °FChilly.10 mph79%29.58 "HgN/A
6:00 AM39 °FChilly.10 mph79%29.55 "HgN/A
5:00 AM39 °FChilly.9 mph76%29.53 "HgN/A
4:00 AM40 °FChilly.10 mph77%29.50 "HgN/A
3:00 AM39 °FChilly.12 mph75%29.47 "HgN/A
2:00 AM39 °FChilly.10 mph77%29.47 "HgN/A
1:00 AM40 °FQuite cool.12 mph74%29.44 "HgN/A
12:00 AM43 °FQuite cool.14 mph60%29.41 "HgN/A
11:00 PM
Tue, Mar 31
44 °FQuite cool.14 mph58%29.38 "HgN/A
10:00 PM44 °FQuite cool.15 mph65%29.35 "HgN/A
9:00 PM45 °FQuite cool.15 mph62%29.29 "HgN/A
8:00 PM45 °FCool.17 mph67%29.26 "HgN/A
7:00 PM45 °FCool.16 mph75%29.23 "HgN/A
6:00 PM46 °FCool.15 mph72%29.18 "HgN/A
5:00 PM50 °FCool.14 mph61%29.15 "HgN/A
4:00 PM51 °FCool.13 mph56%29.09 "HgN/A
3:00 PM52 °FCool.16 mph60%29.09 "HgN/A
2:00 PM50 °FCool.12 mph74%29.09 "HgN/A
1:00 PM51 °FCool.10 mph79%29.06 "HgN/A
Weather by CustomWeather, © 2015

See weather overviewHow to use our weather pages